GFSFLT2_925_spd_135.txt.gz
Wind_Speed
9 7 6 5 4 4 5 7 12 12 14 15 16 16 17 17 17 18 16 16 16 17 17 17 18 18 16 17 17 15 12 12
13 12 10 9 8 6 6 7 8 10 13 15 15 16 17 17 18 18 17 17 17 17 17 17 18 19 17 18 18 17 12 13
19 17 14 11 9 9 8 8 8 8 10 12 13 14 14 15 18 19 19 18 18 18 18 18 19 19 18 18 19 17 14 14
22 20 18 13 13 9 8 7 7 9 8 8 11 14 16 16 18 20 20 20 19 19 19 19 18 15 16 19 18 17 16 14
24 23 21 18 17 14 13 11 9 6 5 6 10 10 14 16 17 16 18 19 19 19 18 18 18 17 17 17 17 18 17 16
22 23 22 20 19 17 16 15 12 9 7 3 7 11 13 16 19 21 22 23 24 24 22 20 21 22 18 18 18 18 18 17
23 23 24 22 20 18 17 16 14 13 9 7 6 6 11 13 19 22 23 25 24 25 26 27 22 23 23 22 20 19 19 18
21 21 23 22 20 18 18 16 13 12 12 11 9 9 9 9 12 16 21 24 25 23 23 23 24 21 22 26 26 21 20 20
21 21 23 23 21 19 18 15 13 12 13 10 10 12 13 11 13 16 20 16 14 14 22 27 30 27 24 23 24 27 25 21
21 22 23 23 22 19 18 15 14 12 15 13 14 15 13 12 11 10 14 18 24 25 31 24 19 27 25 24 28 28 29 24
19 21 22 24 23 22 20 16 12 17 14 15 16 14 13 15 14 13 10 10 17 21 20 28 30 31 26 22 24 27 29 31
19 20 21 23 21 22 18 16 16 16 15 15 14 16 20 18 18 19 18 12 11 13 22 23 31 38 27 26 28 25 29 32
21 23 22 25 23 25 19 20 23 18 18 17 18 19 16 20 21 20 18 16 13 14 17 22 23 29 20 22 26 29 25 29
23 23 22 23 21 21 17 22 17 22 18 20 20 18 19 19 19 20 18 18 16 16 17 20 26 24 24 22 8 13 22 26
23 22 24 22 23 22 21 21 20 21 23 23 22 23 22 20 20 21 20 19 21 17 18 21 18 27 34 21 7 11 5 11
21 20 22 21 22 23 23 23 25 25 26 26 28 23 23 22 21 21 21 19 22 22 19 22 24 21 22 33 41 12 4 10
19 19 20 21 21 21 22 23 24 26 27 28 29 26 23 22 22 23 22 20 21 23 24 21 22 26 24 24 28 26 27 4
18 20 20 21 21 21 21 22 24 26 26 27 25 26 26 24 23 23 23 22 22 23 24 25 24 25 29 24 27 20 16 10
19 20 21 21 22 21 21 21 22 24 24 24 27 25 25 25 25 25 26 25 23 24 25 24 25 23 20 21 24 32 24 22
18 20 21 22 22 22 20 21 21 22 22 23 22 25 26 26 25 26 26 25 29 27 25 23 20 25 24 25 22 25 31 33

GFSFLT2_925_spd_138.txt.gz
Wind_Speed
14 12 10 12 13 9 8 8 8 8 10 13 15 15 17 17 18 18 18 17 17 16 17 15 15 15 14 15 15 16 13 11
19 17 14 11 9 9 9 10 8 9 10 11 14 16 18 19 19 20 20 19 18 18 17 16 16 16 16 15 16 16 13 13
19 18 16 14 14 12 10 7 10 10 8 10 11 13 17 19 20 21 21 20 20 21 19 18 17 16 17 16 17 16 15 15
20 19 18 16 14 14 13 12 11 8 6 10 10 12 14 16 18 20 22 21 22 20 19 19 18 16 16 18 17 18 18 16
20 20 19 19 16 15 13 12 12 11 8 7 7 11 13 14 16 18 17 20 20 19 19 19 19 19 18 16 18 19 18 18
19 20 20 19 16 15 14 13 14 12 14 12 11 10 9 13 15 15 16 16 16 20 20 21 21 21 20 19 19 18 19 19
19 18 19 19 16 15 14 13 12 13 12 12 13 13 12 14 13 14 16 17 18 20 20 19 21 21 21 22 22 21 21 20
18 18 18 18 16 16 14 13 13 12 12 12 13 12 13 13 14 14 14 15 17 19 22 22 25 24 23 22 23 24 23 23
18 18 18 18 16 16 14 13 14 12 13 13 13 13 14 13 12 13 14 16 14 13 11 12 19 28 24 23 21 25 25 24
17 18 19 19 17 16 14 13 13 13 14 13 14 15 13 14 14 14 14 15 13 12 16 17 24 24 25 36 21 23 23 25
17 18 19 20 19 16 16 14 12 14 15 15 15 15 14 16 15 16 16 17 16 15 15 16 20 29 30 40 27 24 23 23
14 16 17 20 17 17 17 14 15 17 15 16 18 17 18 18 17 17 17 18 18 18 18 18 20 19 19 22 28 34 30 28
15 17 18 20 19 20 19 19 20 16 19 19 18 19 19 19 19 18 17 19 20 19 20 20 20 19 16 20 25 29 30 28
17 17 18 19 18 20 19 20 20 21 20 19 21 20 21 21 21 21 20 20 21 21 21 23 23 22 16 13 7 21 27 31
16 17 18 18 21 20 21 22 20 20 20 22 21 23 24 22 22 23 23 21 23 21 21 22 24 24 26 18 8 11 13 30
16 16 17 17 19 20 20 21 22 23 24 24 27 25 25 23 22 22 22 22 23 23 21 22 23 26 23 30 34 22 8 13
14 15 16 18 19 19 21 20 21 23 22 24 25 24 23 22 22 22 23 23 22 22 22 22 24 26 26 26 22 32 35 13
14 16 16 18 20 21 20 21 23 24 24 24 22 24 23 21 22 22 22 23 24 23 21 21 23 27 28 26 24 10 14 16
13 15 16 18 19 20 19 20 21 22 23 23 25 23 22 23 25 23 22 22 23 25 23 22 22 23 26 24 22 21 17 25
13 14 15 17 19 19 18 19 19 19 20 21 19 20 21 25 23 21 20 20 20 22 23 25 23 23 25 28 28 27 26 25

GFSFLT2_925_spd_141.txt.gz
Wind_Speed
16 14 11 11 14 11 10 9 8 8 10 12 14 15 15 17 18 18 18 18 17 17 16 15 15 13 12 13 13 13 14 15
18 17 14 15 14 13 11 11 10 7 8 11 15 16 17 19 20 20 20 20 19 19 17 17 17 16 15 14 14 15 16 18
18 18 18 17 15 15 15 15 12 10 9 8 10 14 17 16 20 21 21 23 22 21 19 18 17 17 16 16 16 15 16 18
18 17 18 17 14 15 13 13 12 14 15 13 12 12 14 18 19 22 24 24 23 23 21 19 20 16 16 19 18 17 19 24
17 18 18 18 15 14 13 13 14 13 16 17 16 14 13 13 13 16 19 22 21 20 22 22 19 19 19 20 18 20 22 22
17 18 17 17 15 14 14 14 15 14 15 15 16 16 17 14 14 14 13 17 19 21 21 22 23 23 22 19 21 19 25 25
16 16 17 17 16 15 15 15 14 16 14 14 15 15 15 15 15 14 15 16 17 20 24 24 24 25 27 27 20 18 21 26
14 15 16 16 15 16 15 14 15 14 14 14 14 14 15 16 16 15 15 13 13 13 20 15 18 21 21 22 26 22 21 27
14 14 15 17 16 16 14 15 16 15 15 15 15 15 16 16 16 15 15 15 14 15 15 18 20 22 18 16 20 19 22 28
14 15 15 17 16 15 15 15 16 15 16 17 16 16 17 17 17 17 16 16 16 16 16 18 18 20 22 25 27 30 36 45
17 18 19 21 19 17 17 17 16 16 17 16 17 18 18 19 19 18 17 18 17 17 19 20 19 19 19 17 21 29 33 43
14 16 17 20 17 18 18 18 17 18 19 18 19 19 19 20 20 20 20 20 19 18 19 21 23 22 19 18 20 24 33 35
13 15 16 18 17 19 20 21 22 22 20 21 20 20 21 20 21 21 20 20 20 20 20 21 23 24 22 20 24 23 25 32
13 15 17 17 18 20 19 22 23 23 22 20 21 22 22 23 23 24 23 23 22 22 21 22 24 24 21 20 11 17 23 30
12 13 15 15 17 18 19 22 20 21 21 24 22 23 25 25 25 24 24 24 24 23 22 22 23 24 25 16 9 11 9 22
10 12 13 14 16 18 20 20 22 23 23 24 26 25 25 23 23 24 23 22 23 23 21 22 24 24 23 26 27 28 11 8
10 12 13 15 17 19 20 20 21 23 23 24 24 22 23 22 22 22 23 21 21 22 23 24 22 21 24 23 23 23 25 12
10 12 13 15 18 19 19 20 22 23 23 23 22 24 22 21 21 24 24 23 23 23 23 24 24 24 25 25 23 15 13 10
10 12 13 15 17 18 19 20 20 21 22 22 24 22 22 22 24 26 24 24 24 24 25 23 23 23 22 25 25 20 17 17
9 11 13 14 15 16 17 17 18 19 20 21 20 21 22 23 23 22 21 20 20 22 24 24 25 24 23 24 24 27 27 23

GFSFLT2_925_spd_147.txt.gz
Wind_Speed
17 16 17 17 16 19 19 18 19 15 14 13 11 11 9 9 11 13 15 17 18 19 19 20 20 19 18 18 18 15 15 15
20 18 15 17 14 17 17 14 18 18 17 14 13 12 12 12 10 11 15 19 20 21 22 21 20 21 21 20 19 19 19 18
21 20 18 16 15 14 13 15 13 15 19 19 18 15 15 15 13 12 13 17 22 22 21 23 22 24 24 23 20 21 22 21
21 20 21 17 17 15 14 15 15 18 19 20 20 17 15 14 12 12 13 14 16 20 23 26 25 26 27 26 25 25 25 25
20 20 19 18 19 18 17 17 18 18 19 21 21 20 19 17 16 15 15 15 19 21 19 21 25 28 27 28 29 27 28 30
16 18 19 18 19 20 19 20 22 21 19 22 24 24 23 22 21 20 18 17 19 19 19 20 19 22 24 27 28 26 26 30
17 17 20 19 20 20 20 21 23 21 19 21 25 22 24 25 24 22 22 21 21 21 19 21 22 21 19 26 28 27 22 20
14 16 19 19 22 21 21 20 23 21 19 22 23 19 24 27 27 26 24 23 25 26 24 22 20 23 22 19 22 24 36 19
12 14 18 18 19 18 18 18 19 19 19 21 20 20 25 27 28 27 26 26 27 28 28 26 24 21 24 22 20 26 29 29
13 14 19 19 18 17 18 18 17 19 20 19 22 24 21 21 21 25 26 27 27 26 27 27 27 26 24 23 27 24 27 28
14 15 19 18 19 21 21 22 24 25 25 23 21 23 21 20 19 20 21 24 23 23 25 24 26 25 26 22 21 29 26 24
14 16 18 18 21 22 23 25 27 25 22 22 26 24 26 27 24 24 23 23 25 27 29 29 24 25 25 27 28 26 29 27
14 16 17 20 23 23 24 26 24 24 23 26 25 30 32 32 26 25 22 21 23 26 28 25 26 23 23 20 23 24 25 29
12 14 14 17 18 18 19 18 17 18 24 26 30 32 29 26 28 25 22 21 19 20 21 23 21 20 11 17 5 8 18 26
10 12 11 15 17 17 19 19 20 21 24 24 28 25 27 25 25 23 24 22 21 20 19 20 21 19 16 7 4 3 5 9
8 9 8 12 15 16 16 17 16 20 22 25 26 26 24 24 24 24 25 23 23 22 21 21 21 18 18 17 17 13 3 4
8 8 9 11 13 14 15 17 17 19 22 22 23 24 23 24 25 26 26 25 23 23 23 21 20 21 19 16 18 18 18 4
8 9 11 11 11 12 15 16 17 20 25 23 25 24 24 25 28 27 26 26 24 26 25 23 21 21 19 19 17 11 6 5
11 10 12 11 9 11 14 14 15 16 20 23 25 24 26 29 29 28 26 25 24 24 23 21 22 21 20 18 19 18 20 16
10 10 9 9 8 9 10 12 13 15 18 20 22 22 24 28 28 28 25 25 23 21 18 18 19 20 20 19 20 19 16 15

GFSFLT2_925_spd_153.txt.gz
Wind_Speed
15 14 14 13 14 14 14 14 15 14 16 15 13 13 13 12 12 11 13 12 11 10 11 14 15 16 15 15 15 15 16 16
15 13 12 12 12 13 13 15 16 15 16 16 14 14 14 15 14 15 14 14 13 11 10 11 15 16 17 18 17 17 19 19
17 16 14 14 15 16 16 17 17 17 18 18 17 18 17 17 17 16 16 15 14 13 11 10 9 13 16 18 20 20 21 22
17 16 17 16 18 18 18 17 17 17 18 20 19 19 19 19 19 20 18 18 16 15 14 13 13 13 13 13 16 21 24 25
17 17 17 17 17 17 18 17 17 18 19 19 19 20 22 24 25 25 25 24 24 22 20 18 18 18 18 17 16 16 23 27
16 16 17 17 16 17 17 17 17 18 19 20 22 24 25 26 27 28 28 28 28 27 25 23 21 19 19 19 18 17 17 24
16 15 16 15 16 16 17 17 17 16 17 19 22 24 25 27 28 29 29 29 29 29 29 28 25 22 20 21 19 19 21 19
13 14 14 12 14 15 16 15 15 16 18 19 19 21 24 26 28 29 31 31 31 31 30 28 29 26 25 23 22 21 20 20
13 13 12 13 14 14 15 16 15 16 17 18 20 21 22 23 24 26 28 30 32 32 32 32 30 29 29 28 27 25 23 21
13 12 12 12 13 13 13 14 16 17 18 22 23 24 25 26 25 28 29 30 27 29 28 30 27 26 28 30 30 28 26 25
13 11 11 11 10 12 13 14 18 18 19 22 23 24 24 24 25 25 25 26 26 26 25 25 25 25 25 24 26 33 34 30
12 11 10 9 9 9 11 14 16 18 20 22 23 24 24 24 25 25 25 23 24 25 24 23 23 25 26 27 32 34 33 34
10 8 10 10 11 9 7 12 15 18 19 21 23 24 24 24 24 24 25 23 23 23 23 25 23 23 23 20 21 26 33 35
11 9 8 10 12 11 7 8 8 15 19 22 23 24 24 24 25 26 28 24 23 24 23 22 19 18 15 20 6 6 7 19
11 9 7 8 9 7 7 5 7 17 21 22 23 24 24 25 24 26 26 21 21 22 22 18 19 20 17 9 4 3 9 7
11 8 5 6 7 8 11 12 10 12 16 19 21 23 26 28 24 24 23 21 20 22 20 22 19 19 18 15 16 16 4 5
13 9 6 6 7 8 9 10 10 11 14 18 19 21 22 26 23 22 21 20 22 22 22 21 21 21 20 17 15 17 16 5
15 10 7 4 3 6 8 9 9 12 14 17 17 19 20 24 22 21 20 22 21 20 20 19 20 21 21 21 17 10 7 5
16 11 8 5 2 5 7 8 8 10 12 13 12 13 18 21 21 21 22 21 18 18 19 19 19 20 22 16 17 16 16 17
16 13 11 7 3 5 5 6 8 9 9 9 11 11 14 15 19 21 21 20 19 17 18 18 19 20 22 20 14 11 16 18

GFSFLT2_925_spd_159.txt.gz
Wind_Speed
15 13 13 14 15 16 16 15 14 13 13 12 12 11 10 10 10 10 10 9 9 8 8 8 9 11 13 15 17 18 16 16
13 12 13 15 16 15 16 16 15 14 14 14 12 12 12 13 12 14 12 11 11 11 11 11 11 11 12 15 18 20 16 18
13 13 13 15 16 17 17 17 16 15 15 14 14 15 15 16 16 16 16 16 16 15 15 16 16 15 14 13 13 14 16 15
13 13 14 15 17 16 16 16 16 17 16 16 16 16 17 16 17 18 18 19 19 19 19 18 18 17 17 17 14 15 15 17
13 13 14 14 15 14 14 15 15 16 16 17 16 17 18 18 18 20 21 22 21 22 21 20 21 20 19 18 19 19 16 17
13 13 13 13 13 13 13 13 14 15 16 17 17 18 19 19 19 19 20 22 22 21 20 22 21 22 21 22 22 20 18 19
14 13 12 12 12 12 13 13 13 14 15 17 17 17 18 18 18 18 19 20 21 21 21 22 22 21 22 22 22 22 23 22
14 13 12 11 12 12 12 12 12 13 14 15 15 16 17 17 17 18 19 21 21 20 21 21 21 22 22 22 23 23 23 24
15 14 12 11 11 11 11 11 11 12 13 13 14 16 16 16 16 17 18 19 19 19 19 19 20 21 23 24 24 24 25 25
14 13 12 11 10 10 10 10 10 11 12 12 14 15 16 16 16 16 20 18 18 18 19 21 21 21 23 24 24 25 25 26
16 14 11 10 10 9 9 9 9 10 10 12 14 15 16 15 14 14 17 16 15 16 17 18 21 22 24 25 26 25 25 24
18 16 13 11 10 7 6 7 8 9 9 11 13 14 15 14 12 12 14 13 14 16 18 18 19 22 27 27 26 24 17 17
17 16 14 13 9 5 3 3 4 7 9 11 13 14 14 13 12 12 13 13 13 15 16 19 20 21 22 27 16 16 7 14
18 15 14 12 9 8 5 5 4 6 8 11 12 12 12 11 11 11 12 13 14 16 17 18 15 18 15 17 8 10 13 33
19 16 13 11 10 9 7 5 4 3 6 8 10 10 10 12 11 11 12 12 14 15 15 16 16 17 14 6 5 5 18 11
19 17 14 12 10 7 6 5 4 2 3 5 5 10 9 12 12 11 13 13 14 14 14 15 15 16 15 4 13 16 3 8
20 18 15 12 9 7 6 6 6 4 3 6 8 8 9 11 12 13 14 13 13 13 14 14 13 13 15 16 17 16 16 8
22 18 14 12 10 8 7 7 6 5 6 8 7 6 7 13 14 13 12 13 13 13 14 13 14 14 14 15 16 9 11 10
21 18 14 13 10 9 8 7 7 7 6 6 7 6 9 14 15 13 12 11 12 13 13 13 15 14 15 17 17 17 17 19
22 19 16 14 11 9 7 7 6 6 5 5 4 7 9 12 12 11 11 11 12 12 11 14 15 15 16 18 20 17 15 16